Location: Newark
(55.7816°N, 8.2389°E)
Time: 17:55:48
(UTC+00:00)

LilacSat-2 - Pass Details

Date: 24 February 2020
Orbit: 514 x 534 km, 97.5° (Epoch: 05 April)

Event Time Altitude Azimuth Distance (km) Brightness Sun altitude
Rises 04:08:16 0° 28° (NNE) 2,656 ? -20.8°
Reaches altitude 10° 04:11:20 10° 56° (NE) 1,765 ? -20.4°
Maximum altitude 04:13:18 14° 87° (E) 1,546 ? -20.2°
Drops below altitude 10° 04:15:15 10° 118° (ESE) 1,762 ? -19.9°
Sets 04:18:18 0° 146° (SE) 2,649 ? -19.5°
